Temp
-9 -9 -9 -9 -9 -9 -9 -9 -9 -9 -9 -9 -9 -9 -9 -9 -9 -9 -8 -9 -9 -9 -9 -9 -9 -9 -9 -9 -9 -9 -9 -9 -10 -10 -10 -10 -10 -10 -10 -10 -11 -11 -10 -10 -10 -10 -10 -10 -11 -11 -12 -12 -13 -13 -14 -13 -14 -14 -14 -14 -14 -15 -15
-9 -9 -9 -9 -9 -9 -9 -9 -9 -9 -9 -9 -9 -9 -9 -9 -9 -9 -9 -9 -9 -9 -9 -9 -9 -9 -9 -9 -10 -10 -10 -10 -10 -10 -10 -10 -10 -10 -11 -11 -12 -12 -11 -11 -11 -11 -11 -11 -11 -12 -12 -13 -13 -14 -14 -14 -14 -15 -15 -15 -15 -15 -15
-9 -9 -10 -10 -10 -10 -10 -10 -10 -10 -10 -10 -10 -10 -10 -10 -10 -10 -9 -9 -9 -9 -10 -10 -9 -9 -9 -10 -10 -10 -10 -10 -10 -11 -11 -11 -11 -11 -11 -12 -12 -13 -12 -12 -12 -12 -12 -12 -12 -12 -13 -13 -14 -15 -15 -15 -15 -15 -15 -15 -15 -15 -15
-10 -10 -10 -10 -10 -10 -10 -10 -10 -10 -10 -10 -10 -10 -10 -10 -10 -10 -10 -10 -10 -10 -10 -10 -10 -9 -10 -10 -10 -10 -10 -11 -11 -11 -11 -11 -11 -12 -12 -12 -13 -13 -13 -13 -14 -13 -13 -13 -13 -13 -14 -14 -15 -15 -15 -15 -15 -15 -15 -15 -15 -15 -15
-10 -10 -10 -10 -10 -10 -11 -11 -11 -11 -11 -11 -11 -11 -11 -10 -10 -10 -10 -10 -10 -10 -10 -11 -10 -10 -10 -11 -11 -11 -11 -11 -12 -12 -12 -12 -12 -12 -12 -13 -13 -14 -14 -14 -15 -14 -14 -14 -14 -14 -14 -15 -15 -15 -16 -16 -16 -15 -15 -15 -15 -15 -15
-11 -11 -11 -11 -11 -11 -11 -11 -11 -11 -11 -11 -11 -11 -11 -11 -11 -11 -11 -11 -11 -11 -11 -11 -11 -11 -12 -12 -12 -12 -12 -12 -12 -13 -13 -13 -13 -13 -13 -14 -14 -14 -15 -15 -15 -15 -15 -15 -15 -15 -15 -15 -15 -16 -16 -16 -16 -16 -16 -15 -15 -15 -15
-11 -11 -11 -11 -11 -11 -11 -11 -11 -11 -11 -12 -12 -12 -12 -12 -12 -12 -12 -12 -12 -12 -12 -12 -12 -12 -13 -13 -13 -13 -13 -13 -13 -13 -13 -13 -13 -14 -14 -14 -15 -15 -15 -15 -15 -16 -16 -16 -15 -15 -15 -15 -16 -16 -16 -16 -16 -16 -16 -15 -15 -16 -16
-12 -12 -12 -12 -12 -12 -12 -12 -12 -12 -12 -13 -13 -13 -13 -13 -13 -13 -13 -13 -13 -13 -13 -13 -13 -13 -13 -14 -14 -14 -14 -14 -14 -14 -14 -14 -14 -15 -15 -15 -15 -15 -15 -16 -16 -16 -16 -16 -16 -16 -16 -16 -16 -16 -16 -16 -16 -16 -16 -16 -16 -16 -17
-13 -13 -13 -13 -13 -13 -13 -13 -13 -13 -14 -14 -14 -14 -14 -14 -14 -14 -14 -14 -14 -14 -14 -14 -14 -14 -14 -14 -14 -14 -14 -14 -14 -14 -15 -15 -15 -15 -15 -15 -15 -16 -16 -16 -16 -16 -17 -17 -16 -16 -16 -16 -16 -16 -16 -16 -17 -17 -17 -17 -17 -17 -17
-13 -13 -13 -13 -13 -13 -14 -14 -14 -14 -14 -14 -14 -14 -14 -15 -15 -15 -15 -15 -15 -15 -15 -15 -15 -15 -15 -15 -15 -15 -15 -15 -15 -15 -15 -15 -15 -16 -16 -16 -16 -16 -16 -16 -16 -16 -17 -17 -16 -16 -16 -16 -16 -16 -17 -17 -17 -17 -18 -18 -18 -18 -17
-14 -14 -14 -14 -14 -14 -14 -14 -14 -14 -15 -15 -15 -15 -15 -15 -15 -15 -15 -15 -15 -15 -15 -15 -15 -15 -15 -15 -15 -15 -15 -16 -16 -16 -16 -16 -16 -16 -16 -16 -16 -16 -16 -16 -16 -16 -17 -17 -16 -16 -16 -16 -17 -17 -17 -18 -18 -18 -18 -18 -18 -18 -18
-14 -14 -14 -14 -14 -14 -14 -15 -15 -15 -15 -15 -15 -15 -15 -15 -15 -15 -15 -16 -16 -16 -16 -16 -16 -16 -16 -16 -16 -16 -16 -16 -16 -16 -16 -16 -16 -16 -16 -16 -16 -16 -16 -16 -16 -16 -17 -16 -16 -16 -17 -17 -17 -17 -18 -18 -18 -18 -18 -18 -18 -18 -18
-15 -15 -15 -15 -15 -15 -15 -15 -16 -16 -16 -16 -16 -16 -16 -16 -16 -16 -16 -16 -16 -16 -16 -16 -16 -16 -16 -16 -16 -16 -16 -16 -16 -16 -16 -16 -16 -16 -16 -16 -16 -16 -17 -17 -17 -17 -17 -16 -17 -17 -17 -17 -18 -18 -19 -19 -18 -18 -18 -19 -19 -19 -19
-16 -16 -16 -16 -16 -16 -16 -16 -16 -16 -16 -16 -16 -17 -17 -16 -16 -16 -16 -16 -16 -16 -16 -16 -17 -17 -16 -16 -17 -17 -17 -17 -17 -17 -17 -17 -17 -17 -17 -17 -17 -17 -17 -17 -17 -17 -17 -17 -17 -18 -17 -18 -19 -19 -19 -19 -19 -19 -19 -19 -19 -20 -20
-16 -16 -17 -17 -17 -17 -17 -17 -17 -17 -17 -17 -17 -17 -17 -17 -17 -17 -17 -17 -17 -17 -17 -17 -17 -17 -17 -17 -17 -17 -17 -17 -17 -17 -17 -17 -17 -17 -17 -17 -17 -17 -18 -18 -18 -18 -18 -18 -18 -18 -18 -19 -19 -19 -19 -20 -20 -20 -20 -20 -20 -20 -20
-17 -17 -17 -17 -17 -17 -17 -17 -17 -17 -18 -18 -18 -18 -17 -17 -17 -17 -17 -17 -17 -17 -17 -17 -17 -17 -17 -17 -17 -17 -18 -18 -18 -18 -18 -18 -18 -18 -18 -18 -18 -18 -18 -18 -18 -18 -18 -19 -19 -19 -19 -19 -19 -19 -20 -20 -21 -21 -21 -20 -20 -20 -20
-18 -18 -18 -18 -18 -18 -18 -18 -18 -18 -18 -18 -18 -18 -18 -18 -18 -18 -18 -18 -18 -18 -18 -18 -18 -18 -18 -18 -18 -18 -18 -18 -19 -19 -19 -19 -19 -19 -19 -18 -18 -19 -19 -19 -19 -19 -19 -19 -19 -19 -19 -20 -20 -20 -20 -21 -21 -21 -21 -21 -21 -20 -20
-18 -18 -18 -18 -18 -18 -18 -18 -18 -18 -18 -19 -19 -19 -18 -18 -18 -18 -18 -18 -18 -18 -18 -18 -18 -18 -18 -18 -18 -18 -18 -19 -19 -19 -19 -19 -19 -19 -19 -19 -19 -20 -20 -20 -20 -20 -20 -20 -20 -20 -20 -21 -21 -21 -21 -21 -21 -21 -22 -22 -21 -21 -21
-19 -19 -19 -19 -19 -19 -19 -19 -19 -19 -19 -19 -19 -19 -19 -19 -19 -19 -19 -19 -19 -19 -19 -19 -19 -19 -19 -19 -19 -19 -19 -19 -20 -20 -20 -20 -20 -20 -20 -20 -20 -20 -20 -21 -21 -21 -21 -21 -21 -21 -21 -21 -22 -22 -22 -22 -22 -22 -23 -22 -22 -22 -23
-19 -19 -19 -19 -19 -19 -19 -19 -19 -20 -20 -20 -20 -20 -20 -20 -20 -20 -20 -19 -19 -19 -19 -19 -19 -19 -19 -19 -19 -19 -20 -20 -21 -21 -21 -21 -21 -21 -21 -21 -21 -21 -21 -22 -22 -22 -22 -22 -23 -23 -22 -22 -23 -23 -23 -22 -23 -23 -23 -23 -23 -23 -23
-19 -20 -20 -20 -20 -20 -20 -20 -20 -20 -20 -21 -21 -21 -21 -20 -20 -20 -20 -19 -19 -19 -20 -20 -20 -20 -20 -20 -20 -20 -20 -20 -21 -22 -22 -22 -21 -21 -22 -23 -22 -22 -22 -22 -22 -23 -23 -23 -23 -24 -24 -23 -23 -24 -24 -23 -23 -24 -24 -24 -24 -24 -24
-20 -20 -20 -20 -20 -20 -20 -21 -21 -21 -21 -21 -21 -21 -21 -21 -21 -21 -20 -20 -20 -20 -20 -20 -20 -20 -20 -21 -21 -21 -21 -21 -22 -23 -23 -23 -23 -23 -23 -24 -23 -23 -23 -23 -23 -23 -24 -24 -24 -24 -24 -24 -24 -25 -25 -24 -24 -24 -24 -24 -24 -24 -24
-20 -20 -20 -21 -21 -21 -21 -21 -21 -21 -21 -21 -21 -22 -22 -22 -22 -21 -21 -21 -20 -20 -20 -20 -20 -21 -21 -21 -22 -22 -22 -22 -22 -23 -23 -23 -24 -24 -24 -25 -25 -24 -24 -24 -24 -24 -24 -24 -25 -25 -25 -25 -25 -25 -26 -26 -25 -25 -25 -25 -25 -25 -25
-21 -21 -21 -21 -22 -22 -22 -22 -22 -22 -22 -22 -22 -22 -22 -22 -22 -22 -22 -22 -21 -21 -21 -21 -21 -21 -22 -22 -22 -22 -23 -23 -23 -23 -23 -24 -24 -24 -24 -25 -25 -25 -25 -25 -25 -24 -24 -24 -25 -25 -25 -25 -25 -26 -26 -26 -26 -26 -25 -25 -25 -25 -25
-21 -21 -21 -22 -22 -22 -23 -23 -23 -23 -23 -23 -23 -23 -23 -23 -23 -23 -23 -22 -22 -22 -22 -22 -22 -23 -23 -23 -23 -23 -23 -23 -24 -24 -24 -24 -25 -25 -25 -25 -26 -26 -26 -26 -26 -25 -25 -25 -25 -25 -25 -26 -26 -26 -26 -26 -26 -26 -26 -26 -26 -26 -26
-21 -21 -22 -22 -23 -23 -23 -23 -23 -23 -24 -24 -24 -23 -23 -23 -23 -23 -23 -23 -23 -23 -23 -23 -23 -23 -23 -23 -23 -23 -24 -24 -24 -24 -25 -25 -25 -26 -26 -26 -26 -26 -27 -27 -27 -26 -26 -26 -26 -26 -26 -26 -27 -27 -27 -27 -27 -27 -27 -27 -27 -26 -26
-22 -22 -22 -23 -23 -23 -23 -23 -23 -24 -24 -24 -24 -24 -24 -24 -24 -23 -23 -23 -23 -24 -24 -24 -24 -24 -24 -24 -24 -24 -24 -24 -24 -24 -25 -25 -25 -26 -26 -26 -27 -27 -27 -27 -27 -27 -27 -27 -27 -27 -27 -27 -27 -27 -27 -27 -27 -27 -27 -27 -28 -28 -27
-23 -23 -23 -23 -23 -23 -23 -23 -23 -24 -24 -24 -24 -24 -24 -24 -24 -24 -24 -24 -24 -25 -25 -25 -25 -25 -25 -25 -25 -25 -25 -25 -25 -25 -25 -25 -26 -26 -26 -26 -27 -27 -27 -27 -27 -27 -27 -27 -28 -28 -28 -28 -28 -28 -28 -28 -28 -28 -28 -28 -28 -28 -28
-23 -23 -23 -23 -23 -23 -23 -23 -23 -24 -25 -25 -25 -25 -24 -24 -24 -24 -24 -24 -24 -25 -25 -25 -25 -25 -25 -25 -25 -25 -26 -26 -26 -26 -26 -26 -26 -26 -26 -27 -27 -27 -27 -27 -28 -28 -28 -28 -28 -28 -28 -28 -28 -28 -28 -28 -28 -28 -28 -29 -29 -29 -29
-24 -24 -24 -24 -24 -24 -24 -24 -24 -25 -25 -25 -26 -25 -24 -25 -26 -26 -25 -24 -25 -25 -25 -25 -25 -25 -26 -26 -26 -26 -26 -26 -26 -27 -27 -27 -27 -27 -27 -27 -27 -27 -28 -28 -28 -28 -28 -28 -28 -29 -29 -29 -29 -29 -29 -29 -29 -29 -29 -29 -29 -29 -29
-25 -25 -25 -25 -25 -25 -25 -25 -25 -25 -26 -26 -26 -25 -25 -26 -27 -26 -25 -25 -26 -26 -26 -26 -26 -26 -26 -26 -26 -26 -27 -27 -27 -27 -27 -27 -28 -28 -28 -28 -28 -28 -28 -28 -28 -29 -29 -29 -29 -29 -29 -29 -29 -29 -29 -30 -30 -30 -30 -30 -30 -29 -29
-26 -26 -26 -26 -26 -26 -26 -26 -26 -26 -26 -26 -26 -26 -26 -27 -27 -27 -26 -27 -27 -26 -27 -27 -27 -27 -27 -27 -27 -27 -27 -27 -27 -27 -27 -28 -28 -28 -28 -29 -29 -29 -29 -29 -29 -29 -29 -30 -30 -30 -30 -30 -30 -30 -30 -30 -30 -30 -30 -30 -30 -30 -30
-26 -27 -27 -27 -27 -27 -27 -27 -27 -27 -27 -27 -27 -27 -27 -27 -27 -27 -27 -27 -27 -27 -27 -27 -27 -28 -28 -28 -28 -28 -28 -28 -28 -28 -28 -28 -28 -29 -29 -29 -29 -30 -30 -30 -30 -30 -30 -30 -31 -31 -31 -31 -31 -30 -30 -30 -30 -31 -31 -31 -31 -31 -31
-27 -27 -27 -27 -27 -27 -27 -27 -27 -27 -28 -27 -27 -27 -28 -28 -28 -28 -28 -28 -28 -28 -28 -28 -28 -28 -28 -29 -29 -29 -29 -29 -29 -29 -29 -30 -30 -30 -30 -30 -30 -30 -30 -31 -31 -31 -31 -31 -31 -31 -32 -32 -31 -31 -31 -31 -31 -31 -31 -31 -31 -31 -31
-27 -27 -27 -27 -27 -27 -27 -27 -28 -28 -28 -28 -28 -28 -28 -28 -28 -28 -29 -29 -29 -29 -29 -29 -29 -29 -29 -30 -30 -30 -30 -30 -30 -30 -31 -31 -31 -31 -31 -31 -31 -31 -31 -31 -31 -32 -32 -32 -32 -32 -32 -32 -32 -32 -32 -32 -32 -32 -32 -32 -32 -32 -32
-27 -27 -27 -27 -27 -28 -28 -28 -28 -28 -28 -28 -28 -28 -28 -28 -28 -29 -29 -29 -29 -30 -30 -30 -30 -30 -30 -31 -31 -31 -31 -31 -31 -32 -32 -32 -32 -32 -32 -32 -32 -32 -32 -32 -32 -32 -32 -33 -33 -33 -33 -33 -33 -33 -33 -33 -33 -33 -32 -32 -32 -32 -32
Height
2953 2952 2951 2950 2950 2949 2948 2948 2948 2948 2947 2947 2947 2947 2946 2946 2944 2943 2945 2944 2943 2944 2943 2942 2943 2944 2945 2944 2942 2943 2943 2943 2943 2942 2942 2942 2941 2941 2941 2941 2939 2937 2940 2942 2941 2942 2944 2945 2946 2947 2948 2949 2949 2950 2950 2950 2952 2952 2952 2953 2954 2955 2956
2946 2945 2944 2943 2943 2942 2941 2941 2940 2940 2939 2939 2939 2939 2938 2938 2936 2936 2937 2936 2935 2936 2935 2934 2934 2935 2936 2934 2933 2934 2934 2934 2934 2933 2933 2933 2932 2932 2933 2932 2931 2930 2931 2932 2932 2933 2935 2936 2937 2937 2939 2940 2941 2941 2941 2942 2943 2943 2944 2944 2945 2946 2947
2939 2938 2937 2936 2935 2934 2933 2933 2932 2931 2930 2930 2930 2930 2930 2929 2928 2927 2928 2927 2927 2927 2926 2925 2925 2927 2927 2925 2923 2925 2925 2925 2924 2923 2923 2924 2923 2923 2924 2924 2922 2921 2922 2923 2924 2924 2926 2927 2928 2929 2931 2931 2932 2932 2932 2933 2934 2934 2935 2936 2936 2938 2939
2931 2930 2929 2928 2927 2926 2925 2924 2924 2923 2922 2922 2921 2921 2921 2920 2919 2919 2919 2919 2919 2918 2917 2916 2916 2918 2918 2915 2914 2915 2916 2915 2914 2914 2913 2914 2914 2914 2915 2915 2913 2913 2914 2914 2915 2915 2917 2918 2919 2921 2922 2922 2922 2923 2923 2924 2925 2926 2926 2927 2928 2929 2931
2923 2922 2921 2920 2919 2918 2917 2916 2915 2914 2913 2913 2912 2912 2911 2911 2910 2910 2910 2910 2909 2909 2908 2907 2907 2909 2908 2905 2904 2906 2906 2906 2905 2905 2904 2905 2906 2906 2906 2905 2905 2905 2905 2906 2906 2907 2908 2910 2911 2912 2913 2913 2913 2914 2914 2915 2916 2917 2918 2919 2920 2921 2923
2915 2914 2912 2912 2911 2910 2909 2908 2907 2905 2904 2904 2903 2902 2902 2901 2901 2900 2900 2900 2900 2900 2899 2898 2898 2899 2898 2896 2895 2897 2897 2897 2896 2896 2895 2896 2897 2897 2897 2896 2896 2897 2897 2897 2898 2899 2899 2901 2902 2903 2904 2904 2905 2905 2905 2906 2907 2908 2909 2910 2911 2913 2916
2906 2905 2904 2903 2902 2901 2900 2899 2898 2897 2896 2895 2894 2892 2892 2891 2891 2890 2890 2890 2890 2890 2889 2888 2888 2889 2888 2887 2887 2888 2888 2888 2887 2887 2887 2888 2888 2888 2888 2888 2888 2889 2888 2889 2890 2890 2890 2892 2894 2895 2895 2896 2897 2896 2896 2896 2897 2899 2901 2903 2904 2906 2908
2897 2896 2895 2894 2893 2892 2891 2890 2889 2888 2887 2886 2885 2883 2883 2882 2881 2881 2880 2880 2880 2880 2880 2879 2879 2879 2879 2878 2878 2879 2879 2879 2879 2878 2878 2879 2880 2879 2879 2879 2880 2880 2880 2881 2882 2882 2882 2884 2885 2886 2887 2887 2887 2886 2887 2889 2890 2892 2894 2896 2897 2899 2900
2888 2887 2886 2885 2884 2883 2882 2881 2880 2879 2878 2877 2877 2875 2874 2873 2873 2872 2871 2871 2871 2871 2871 2871 2870 2870 2871 2870 2870 2871 2871 2871 2871 2870 2870 2871 2871 2870 2870 2871 2871 2872 2872 2873 2873 2874 2874 2875 2876 2877 2878 2878 2878 2880 2881 2883 2883 2885 2887 2887 2888 2890 2891
2880 2879 2878 2876 2875 2875 2874 2873 2872 2871 2870 2869 2868 2867 2866 2865 2864 2863 2863 2862 2862 2862 2862 2862 2862 2862 2863 2862 2862 2862 2862 2862 2862 2862 2862 2863 2862 2862 2863 2863 2863 2863 2864 2864 2865 2866 2866 2866 2868 2870 2870 2871 2872 2874 2874 2874 2874 2876 2878 2879 2880 2881 2882
2873 2872 2870 2869 2868 2867 2866 2865 2864 2863 2862 2861 2860 2859 2857 2857 2856 2856 2855 2854 2854 2854 2854 2854 2854 2854 2854 2854 2854 2854 2854 2854 2854 2854 2854 2854 2854 2854 2855 2855 2855 2856 2856 2856 2857 2858 2858 2858 2860 2862 2862 2864 2865 2865 2865 2866 2867 2868 2869 2870 2871 2873 2874
2867 2865 2863 2862 2861 2860 2858 2858 2857 2856 2855 2854 2852 2851 2849 2849 2848 2848 2848 2847 2846 2846 2846 2846 2846 2846 2846 2846 2846 2847 2846 2846 2846 2846 2846 2846 2846 2846 2847 2847 2848 2848 2848 2848 2849 2850 2850 2851 2853 2854 2854 2856 2857 2857 2857 2858 2859 2860 2861 2861 2863 2865 2867
2859 2858 2856 2855 2854 2852 2851 2850 2849 2848 2847 2845 2844 2843 2841 2840 2840 2840 2840 2839 2839 2839 2838 2838 2838 2837 2838 2839 2839 2839 2838 2838 2838 2838 2838 2838 2838 2838 2839 2839 2840 2840 2841 2841 2841 2841 2842 2844 2845 2845 2847 2849 2849 2849 2849 2850 2850 2852 2852 2853 2855 2858 2860
2851 2850 2848 2847 2846 2845 2844 2842 2841 2840 2839 2837 2836 2835 2833 2833 2833 2833 2832 2831 2831 2831 2831 2831 2830 2830 2830 2831 2831 2831 2831 2830 2830 2830 2830 2830 2829 2830 2831 2831 2832 2832 2833 2833 2832 2833 2835 2836 2837 2838 2840 2841 2840 2840 2840 2841 2843 2844 2845 2846 2848 2850 2850
2844 2843 2841 2840 2839 2838 2836 2835 2834 2833 2831 2830 2828 2826 2826 2826 2826 2825 2825 2824 2824 2823 2823 2823 2822 2822 2822 2823 2823 2823 2823 2822 2822 2821 2821 2821 2822 2822 2823 2823 2824 2825 2825 2825 2824 2825 2827 2828 2829 2830 2831 2831 2831 2832 2833 2834 2835 2836 2837 2837 2838 2839 2839
2837 2836 2835 2833 2832 2831 2830 2828 2827 2826 2824 2823 2820 2819 2819 2819 2819 2818 2817 2817 2816 2816 2815 2815 2815 2814 2815 2815 2815 2815 2815 2814 2813 2813 2813 2813 2814 2814 2814 2815 2817 2817 2817 2817 2817 2818 2819 2820 2821 2822 2823 2823 2824 2824 2825 2825 2826 2827 2827 2827 2828 2830 2832
2831 2830 2828 2827 2826 2825 2824 2822 2821 2819 2817 2816 2813 2812 2812 2812 2811 2810 2810 2809 2809 2809 2808 2808 2807 2807 2807 2807 2808 2807 2807 2806 2805 2805 2805 2805 2806 2806 2806 2807 2809 2809 2808 2809 2809 2810 2811 2812 2813 2814 2814 2815 2815 2816 2817 2816 2816 2818 2819 2819 2821 2823 2825
2826 2824 2822 2821 2819 2818 2817 2816 2814 2813 2811 2809 2807 2806 2806 2805 2804 2804 2803 2802 2802 2802 2801 2801 2800 2799 2799 2799 2800 2800 2799 2799 2797 2797 2798 2798 2798 2798 2798 2800 2801 2800 2800 2802 2802 2803 2804 2804 2804 2805 2806 2806 2807 2808 2808 2808 2808 2810 2811 2812 2813 2816 2818
2821 2819 2817 2815 2814 2812 2811 2810 2808 2807 2805 2803 2802 2800 2799 2799 2798 2797 2796 2796 2795 2795 2794 2794 2793 2792 2792 2792 2792 2792 2791 2791 2790 2789 2790 2791 2790 2790 2791 2792 2792 2792 2793 2794 2794 2795 2796 2796 2796 2796 2797 2798 2799 2799 2799 2801 2802 2803 2803 2804 2806 2809 2810
2815 2814 2812 2810 2809 2807 2806 2804 2803 2802 2800 2798 2796 2794 2793 2792 2791 2790 2789 2789 2788 2788 2787 2787 2786 2786 2785 2784 2784 2784 2784 2784 2783 2783 2783 2783 2782 2783 2784 2785 2784 2785 2786 2786 2786 2787 2789 2789 2789 2788 2788 2789 2791 2791 2791 2793 2794 2795 2796 2797 2799 2801 2802
2811 2809 2807 2806 2804 2802 2801 2799 2798 2796 2795 2793 2791 2789 2787 2786 2785 2784 2782 2782 2781 2781 2780 2780 2780 2779 2778 2778 2777 2777 2777 2776 2777 2776 2776 2775 2775 2776 2777 2777 2776 2777 2777 2778 2778 2780 2780 2781 2781 2781 2780 2780 2781 2782 2783 2784 2786 2788 2790 2791 2793 2794 2795
2806 2804 2803 2801 2799 2797 2796 2794 2792 2791 2789 2787 2786 2784 2782 2780 2779 2777 2776 2775 2775 2774 2774 2773 2773 2773 2773 2772 2771 2771 2770 2770 2770 2770 2770 2769 2769 2768 2768 2768 2768 2769 2769 2769 2770 2771 2772 2773 2774 2774 2774 2774 2774 2775 2776 2776 2778 2781 2783 2785 2787 2788 2789
2801 2799 2798 2797 2795 2793 2791 2789 2787 2784 2783 2781 2780 2778 2777 2775 2773 2771 2770 2769 2768 2767 2767 2767 2766 2766 2766 2766 2766 2765 2764 2764 2763 2762 2763 2763 2763 2762 2761 2761 2760 2760 2761 2761 2762 2762 2763 2765 2766 2767 2768 2769 2770 2770 2771 2771 2772 2773 2774 2776 2778 2780 2781
2796 2794 2793 2792 2791 2789 2787 2784 2782 2779 2777 2776 2774 2773 2772 2770 2768 2766 2764 2763 2762 2761 2760 2760 2760 2759 2759 2759 2759 2759 2758 2757 2756 2756 2756 2756 2756 2756 2756 2756 2754 2753 2753 2753 2754 2754 2755 2757 2759 2760 2762 2763 2765 2766 2767 2767 2766 2766 2766 2767 2768 2769 2771
2791 2789 2788 2787 2786 2784 2782 2779 2777 2775 2773 2771 2769 2767 2765 2764 2762 2761 2759 2758 2756 2755 2754 2754 2753 2753 2752 2751 2751 2751 2750 2750 2749 2749 2749 2749 2749 2750 2750 2750 2749 2748 2746 2745 2745 2746 2747 2749 2751 2753 2755 2757 2758 2758 2759 2759 2759 2759 2759 2760 2760 2761 2762
2786 2784 2784 2783 2781 2778 2777 2775 2773 2771 2769 2766 2764 2761 2759 2758 2756 2754 2753 2752 2751 2750 2749 2748 2747 2745 2744 2743 2742 2742 2742 2741 2741 2741 2741 2741 2741 2742 2742 2742 2742 2742 2741 2739 2738 2737 2738 2740 2742 2744 2746 2748 2749 2749 2750 2751 2752 2752 2752 2753 2754 2754 2754
2782 2780 2779 2778 2776 2773 2772 2770 2768 2767 2765 2762 2759 2756 2754 2752 2750 2748 2747 2747 2746 2745 2744 2742 2740 2738 2736 2735 2734 2733 2733 2733 2732 2732 2732 2732 2732 2732 2733 2733 2734 2734 2733 2733 2732 2731 2731 2731 2732 2734 2735 2737 2738 2740 2742 2743 2744 2745 2746 2747 2747 2747 2748
2777 2775 2774 2773 2770 2768 2766 2764 2763 2761 2759 2756 2753 2750 2748 2747 2744 2742 2741 2741 2740 2739 2737 2735 2732 2730 2728 2727 2726 2725 2724 2723 2723 2723 2723 2723 2723 2723 2724 2724 2724 2725 2725 2725 2725 2725 2724 2724 2724 2724 2726 2727 2728 2730 2733 2735 2736 2737 2738 2740 2740 2740 2741
2771 2769 2768 2766 2764 2761 2759 2758 2757 2755 2752 2749 2746 2743 2741 2740 2738 2735 2734 2733 2732 2730 2728 2727 2725 2723 2722 2720 2719 2717 2716 2715 2714 2714 2714 2713 2714 2714 2714 2715 2715 2715 2716 2716 2716 2716 2717 2717 2717 2717 2718 2718 2719 2721 2723 2725 2727 2728 2730 2731 2732 2732 2734
2766 2764 2761 2759 2758 2755 2753 2751 2750 2748 2745 2743 2739 2736 2734 2734 2731 2727 2725 2725 2723 2721 2719 2718 2717 2715 2714 2712 2711 2710 2709 2708 2707 2706 2705 2705 2705 2704 2704 2705 2705 2706 2706 2707 2707 2707 2708 2708 2709 2709 2710 2710 2711 2712 2714 2715 2717 2719 2720 2721 2722 2724 2726
2763 2760 2757 2754 2752 2750 2748 2746 2744 2741 2739 2736 2732 2730 2729 2728 2724 2719 2717 2716 2715 2713 2711 2709 2708 2706 2705 2703 2702 2700 2699 2698 2697 2697 2697 2696 2696 2696 2695 2695 2695 2695 2696 2697 2698 2698 2699 2699 2700 2701 2702 2702 2703 2705 2706 2707 2708 2709 2710 2711 2713 2715 2718
2760 2757 2754 2751 2748 2745 2742 2740 2738 2735 2733 2730 2726 2724 2723 2721 2716 2713 2711 2709 2706 2704 2702 2700 2698 2697 2695 2694 2692 2691 2690 2689 2688 2687 2686 2686 2686 2687 2686 2686 2686 2686 2686 2687 2688 2688 2690 2690 2691 2692 2693 2694 2695 2696 2697 2698 2700 2701 2702 2703 2705 2707 2709
2756 2753 2750 2748 2745 2741 2738 2735 2733 2730 2727 2724 2721 2718 2716 2713 2710 2707 2704 2701 2699 2697 2694 2692 2690 2688 2686 2684 2682 2681 2680 2679 2678 2677 2676 2676 2675 2676 2676 2677 2677 2677 2677 2677 2678 2679 2680 2681 2682 2683 2684 2686 2687 2688 2688 2690 2691 2693 2694 2695 2696 2698 2700
2753 2749 2746 2744 2741 2737 2734 2731 2728 2725 2721 2718 2715 2713 2710 2707 2704 2701 2697 2694 2691 2689 2686 2683 2681 2679 2677 2675 2673 2671 2670 2669 2668 2667 2666 2666 2665 2665 2665 2666 2667 2667 2667 2668 2668 2669 2670 2672 2673 2674 2675 2677 2678 2680 2681 2682 2683 2685 2686 2687 2689 2690 2692
2749 2745 2742 2739 2736 2733 2729 2726 2722 2719 2715 2712 2709 2707 2704 2701 2698 2695 2691 2688 2685 2682 2679 2676 2673 2671 2669 2666 2664 2662 2661 2659 2658 2657 2656 2656 2655 2655 2655 2655 2656 2656 2657 2658 2659 2660 2661 2662 2664 2665 2667 2668 2669 2671 2672 2674 2675 2677 2678 2680 2682 2684 2685
2744 2741 2737 2734 2732 2728 2725 2721 2718 2714 2710 2706 2703 2700 2697 2694 2692 2689 2686 2683 2680 2676 2673 2670 2666 2664 2662 2659 2657 2655 2653 2651 2650 2648 2647 2646 2646 2645 2645 2645 2645 2646 2646 2647 2648 2650 2651 2653 2654 2656 2658 2659 2660 2662 2664 2666 2668 2669 2671 2673 2675 2677 2679
Wind_Speed
46 47 48 48 49 49 50 50 50 50 50 51 52 52 53 53 54 55 54 54 54 54 54 55 55 55 55 55 56 57 57 58 59 61 62 63 64 64 65 64 64 66 67 66 66 65 64 63 63 62 62 62 62 62 62 62 62 61 60 59 58 57 57
48 50 50 51 52 52 52 52 52 52 52 52 52 52 53 53 54 55 55 55 56 56 56 57 57 57 57 57 58 58 59 59 60 61 62 63 65 65 65 65 64 65 66 66 66 65 64 64 64 63 62 62 61 61 61 61 61 60 59 58 58 59 59
53 54 55 55 55 55 55 55 55 55 55 56 56 55 55 55 56 57 57 57 58 58 58 59 59 60 59 60 61 60 61 61 61 62 63 63 64 65 65 65 64 64 65 65 65 65 65 64 64 63 63 62 61 60 61 61 61 60 60 60 60 61 61
58 59 59 59 58 58 58 58 58 58 58 58 58 58 58 59 59 59 60 60 60 60 60 61 62 62 62 62 62 62 62 62 62 63 63 63 64 64 65 65 64 63 64 63 63 64 64 63 63 63 62 62 61 61 61 61 61 61 61 62 62 62 62
62 62 61 60 60 60 60 60 60 60 60 60 60 61 61 61 61 62 62 62 62 62 62 63 63 63 63 63 63 63 63 63 63 63 63 63 64 64 64 64 63 62 62 61 61 62 62 62 62 62 62 62 62 62 62 62 62 63 63 63 63 63 63
62 61 60 60 61 61 61 61 61 62 62 62 63 63 63 63 63 63 63 63 63 62 62 63 62 62 62 62 63 62 62 62 61 62 62 62 62 63 62 62 61 60 59 59 58 59 59 60 60 61 61 62 62 62 62 62 62 62 63 63 64 63 63
59 59 59 60 60 60 61 61 62 62 63 63 64 64 64 64 64 64 64 63 62 61 61 60 60 60 60 60 61 60 60 60 60 60 61 60 60 60 60 59 59 58 57 56 56 56 57 58 58 59 60 61 61 61 62 63 63 63 63 63 63 62 61
56 56 57 57 58 58 59 59 60 60 61 61 62 63 63 63 63 62 61 61 60 59 58 58 58 58 58 59 59 59 58 59 59 59 59 58 58 58 57 57 57 56 56 55 54 54 55 56 57 58 60 61 61 63 64 63 62 62 61 61 60 59 59
52 53 53 54 54 54 55 55 56 56 57 58 58 59 59 59 59 58 58 57 57 56 56 56 56 56 57 57 57 58 58 58 57 58 57 57 56 56 56 55 55 55 55 54 54 54 54 55 57 58 60 61 62 62 61 60 59 59 59 58 57 57 57
49 50 51 51 52 52 52 53 53 53 54 55 55 56 56 56 56 56 56 56 55 55 55 55 55 55 55 56 56 56 56 56 56 56 56 55 55 55 54 54 54 54 54 54 54 54 54 55 57 58 59 60 60 59 58 58 58 58 57 56 57 57 57
48 48 49 49 50 50 51 51 51 52 52 53 53 54 55 55 55 55 55 55 55 55 54 54 54 54 54 54 54 54 54 54 53 53 54 54 54 54 54 54 54 54 54 54 55 55 55 56 58 58 58 58 59 59 58 58 58 57 57 57 57 57 57
47 47 48 48 49 49 50 50 50 50 50 51 51 52 53 53 53 53 53 54 54 54 54 54 54 53 53 53 53 53 52 52 52 52 52 53 54 54 55 55 55 55 55 55 56 56 57 58 59 59 59 59 59 58 57 57 57 57 57 57 57 56 56
46 46 47 47 47 48 48 48 48 48 48 49 49 49 50 50 51 51 52 52 52 53 53 53 53 54 53 53 53 53 53 53 53 53 53 53 54 55 55 56 56 56 56 56 57 58 59 59 59 58 58 58 57 56 56 57 58 57 57 56 56 55 54
44 45 45 46 46 46 47 47 47 47 47 48 48 48 48 49 49 49 50 50 51 51 52 52 53 53 53 53 53 53 53 54 53 54 54 54 54 55 55 55 55 55 56 56 56 57 57 57 56 56 56 55 55 55 56 56 56 56 55 54 53 52 52
43 43 44 44 44 45 45 46 46 46 47 47 47 48 48 48 48 48 48 49 50 50 50 51 51 52 52 53 53 53 53 53 53 53 53 54 54 54 54 54 54 54 54 54 55 55 55 54 54 54 54 54 54 55 55 54 54 53 53 54 54 55 56
41 42 42 42 43 43 44 44 45 45 46 46 46 47 47 46 46 47 47 47 47 48 49 50 50 51 51 51 52 52 53 53 53 54 54 54 55 54 54 55 55 54 53 54 54 54 54 53 53 54 54 54 54 54 54 53 53 54 55 56 57 58 58
39 40 40 41 41 41 42 42 43 43 44 44 45 46 45 45 45 45 45 45 45 45 46 47 48 48 49 49 49 50 51 51 52 53 54 54 55 55 55 55 55 54 54 53 53 53 53 53 53 53 53 53 54 54 54 54 55 56 57 57 57 58 58
37 38 38 39 39 40 40 40 40 41 41 42 42 43 43 43 43 43 43 43 43 43 43 44 44 45 46 46 47 47 48 49 50 51 51 52 52 53 54 54 54 53 53 51 50 50 51 52 52 52 52 52 53 53 54 55 56 56 55 55 56 57 56
35 35 36 36 37 37 37 38 38 38 38 39 39 39 40 40 40 40 40 40 40 41 41 42 42 43 44 44 45 45 46 47 48 49 49 49 49 50 51 52 51 51 50 49 48 47 47 48 49 50 50 50 50 52 53 54 54 54 54 55 55 55 55
34 34 34 35 35 36 36 36 36 36 36 37 37 37 38 38 38 38 38 38 39 39 39 39 40 41 42 43 43 44 44 44 45 45 46 46 47 47 47 47 47 48 48 47 47 46 45 45 45 47 49 49 49 50 52 53 53 53 54 55 55 55 55
34 34 35 35 36 36 36 36 36 36 36 36 36 37 37 38 38 38 39 39 39 39 39 39 39 39 40 41 42 43 43 43 42 41 41 43 46 45 44 43 45 46 45 45 45 44 44 44 44 45 47 49 49 50 51 53 53 53 53 53 54 54 54
35 35 35 35 36 36 36 36 37 37 36 36 36 36 37 38 38 39 40 40 40 39 39 39 40 39 39 40 40 41 42 43 42 40 39 40 41 42 41 42 44 44 44 45 45 44 43 44 44 44 45 47 48 49 50 51 52 52 51 51 51 52 53
35 35 35 34 34 34 35 36 36 37 37 37 36 36 36 37 38 39 40 40 40 40 40 40 40 40 39 39 39 40 40 41 42 42 42 41 41 41 42 41 43 45 45 45 45 45 45 44 44 44 45 46 47 48 49 50 51 52 52 52 52 53 53
36 36 36 34 33 32 33 34 35 36 36 37 36 36 36 36 37 38 39 39 40 41 41 40 40 39 39 39 39 39 39 40 42 42 43 43 43 43 44 43 44 46 48 48 48 49 49 48 46 46 46 47 47 47 48 50 51 52 53 54 54 54 54
37 37 37 35 34 33 34 34 35 35 35 36 36 37 37 37 37 38 39 39 40 40 40 41 40 40 40 40 40 40 40 41 41 42 42 43 42 43 43 43 45 46 49 51 52 52 52 52 51 50 49 48 48 49 50 50 51 51 52 52 53 53 53
37 38 37 35 35 35 35 35 34 34 34 35 37 38 39 39 40 40 40 41 41 41 41 41 41 42 42 42 42 43 42 42 43 43 43 43 43 43 43 43 45 46 48 51 53 54 55 55 54 53 52 51 51 51 52 52 51 51 50 50 50 51 51
37 38 36 34 34 35 35 35 34 34 34 35 36 38 39 40 41 41 42 41 41 40 40 41 41 42 43 44 44 45 45 45 45 45 45 45 45 45 45 45 45 47 49 51 53 55 56 56 56 56 55 55 54 53 52 52 52 52 51 50 49 50 50
37 37 36 35 35 36 36 36 35 34 34 35 37 38 39 40 41 42 42 41 40 39 39 40 42 43 45 46 46 47 47 47 47 47 47 47 47 47 47 47 47 47 49 50 52 54 56 57 57 58 57 57 56 55 54 53 52 52 52 51 50 51 51
38 38 38 37 37 38 38 38 37 36 37 37 38 40 42 41 41 43 43 42 42 41 42 43 44 45 46 46 47 48 48 49 49 49 49 49 49 48 48 48 48 48 49 49 51 52 54 55 57 58 58 58 57 57 55 54 54 53 53 52 52 52 52
39 40 40 40 39 39 40 40 39 39 39 40 41 43 44 43 43 44 45 44 43 44 44 45 45 45 46 46 47 47 48 48 49 49 50 50 50 50 50 50 49 49 49 49 50 51 52 53 54 56 57 58 58 58 57 56 56 55 55 55 54 54 53
38 38 39 40 40 40 41 41 41 41 41 42 43 45 44 42 44 46 46 46 45 45 46 46 46 46 47 47 47 48 48 49 49 50 50 50 50 50 50 51 51 50 50 50 50 50 50 51 52 54 55 57 58 59 59 58 57 57 56 56 56 55 54
37 37 38 39 40 41 41 41 41 42 42 43 44 45 44 43 45 46 47 47 47 47 48 48 48 48 48 48 49 49 49 50 50 50 51 51 51 50 50 51 51 51 51 51 50 50 49 49 50 51 53 55 56 58 60 60 59 59 58 58 57 56 55
36 36 37 38 38 39 40 41 41 41 42 43 44 44 43 44 45 46 47 47 47 48 48 49 49 49 50 50 50 50 50 50 50 51 51 52 52 52 51 51 51 51 51 51 51 51 50 49 49 49 49 51 52 54 56 58 59 59 58 58 58 57 57
34 36 37 37 37 38 39 39 40 40 41 42 42 42 43 44 44 45 46 47 47 47 47 47 48 48 48 48 49 49 49 50 50 50 51 51 51 52 52 51 51 51 52 52 52 51 51 50 50 49 48 48 49 50 51 53 54 55 55 56 56 56 56
34 35 36 36 36 37 38 38 39 40 41 42 42 42 41 42 41 41 41 42 42 42 43 43 44 44 44 45 45 46 47 47 47 48 48 49 50 50 50 51 51 51 51 52 52 52 52 51 50 50 49 49 48 48 48 48 49 49 50 50 51 51 52
34 35 35 36 36 36 37 38 38 39 40 40 40 39 39 38 37 37 37 37 37 37 38 39 40 40 40 40 41 41 42 43 43 44 45 45 46 47 47 48 48 49 50 50 51 51 52 52 51 50 50 49 49 49 48 48 47 47 47 46 46 46 47
Wind_Direction
278 277 276 275 274 273 272 271 270 270 270 269 269 269 269 268 268 268 268 268 268 269 269 269 269 270 270 270 268 268 267 267 266 265 264 264 263 263 262 261 260 261 263 263 263 264 264 263 263 261 261 260 259 258 258 258 258 257 257 257 258 258 259
281 280 278 277 276 276 275 274 273 272 271 270 269 268 268 268 268 268 268 268 269 270 270 270 270 270 271 270 269 268 268 267 266 264 264 263 263 262 262 261 260 260 261 261 262 262 262 262 262 261 261 260 259 258 257 257 256 256 256 256 256 257 259
282 281 280 278 277 276 276 276 275 274 274 273 271 271 270 270 270 270 270 270 271 271 271 271 271 271 271 270 269 268 268 267 266 264 264 263 263 262 262 261 260 259 259 260 259 259 260 260 260 260 260 259 258 257 256 256 255 254 254 254 255 257 259
281 281 280 278 276 276 275 275 275 274 274 274 273 273 272 272 272 272 272 272 272 272 272 271 271 271 271 269 269 269 268 267 266 265 265 264 263 263 262 261 259 258 258 258 257 257 258 258 258 258 258 257 257 256 255 254 254 253 253 254 256 257 259
280 280 279 277 276 275 275 275 275 274 274 274 274 274 273 273 273 273 272 272 272 271 271 270 270 270 269 268 268 268 268 267 267 266 265 265 264 263 262 261 259 259 258 257 256 256 256 256 256 256 256 256 255 255 254 253 253 253 254 255 256 258 259
278 278 277 276 276 275 274 274 274 274 274 274 274 274 273 273 273 273 272 272 271 271 270 270 269 269 268 267 267 268 267 267 267 266 265 265 264 263 262 261 260 259 257 256 256 255 254 254 254 254 254 254 254 254 253 253 253 253 254 255 257 259 260
277 276 275 275 274 274 273 273 272 272 272 272 272 272 272 272 272 272 272 272 271 271 270 270 269 269 268 268 268 268 268 268 267 266 266 265 264 263 262 261 260 259 257 256 254 253 252 252 252 252 252 252 252 252 252 253 254 254 256 258 259 260 261
277 276 275 274 274 273 273 272 272 271 271 271 271 271 271 272 272 272 272 272 272 271 271 270 270 269 269 269 269 269 269 269 268 267 266 265 264 262 261 260 259 258 256 255 253 252 251 250 250 250 250 250 251 252 253 255 256 258 260 261 261 261 261
281 279 278 277 276 276 275 275 274 273 273 272 272 271 272 272 272 272 272 273 272 272 271 271 271 271 270 270 271 271 270 270 269 267 266 265 263 261 260 259 257 256 255 254 252 251 250 250 250 250 251 251 252 254 256 258 259 260 260 260 260 260 260
283 283 282 281 280 279 278 277 277 276 275 274 273 273 272 272 272 272 272 272 272 272 271 271 271 271 270 270 270 270 270 269 268 267 266 265 263 261 259 258 256 255 255 254 253 252 252 252 252 253 253 255 256 257 258 259 259 260 260 259 259 260 260
283 282 282 281 280 280 279 278 277 276 275 274 274 273 273 272 272 271 271 271 270 270 270 269 269 269 268 268 268 268 268 268 267 267 266 264 262 261 259 258 257 257 256 256 255 255 255 255 256 256 257 257 258 259 259 259 260 260 261 260 260 261 260
282 281 280 279 279 278 278 277 276 276 275 274 274 273 273 273 272 271 270 270 269 269 268 267 267 267 266 266 266 266 266 266 266 265 265 264 262 261 260 259 259 259 259 259 259 258 258 259 259 259 259 259 260 260 260 260 260 261 261 261 261 261 261
284 282 281 280 279 279 278 278 277 276 276 275 275 274 274 273 273 272 271 270 269 269 268 267 266 266 265 265 265 265 265 265 265 264 264 264 263 263 262 262 262 262 261 261 261 260 261 261 261 260 261 261 261 260 260 260 261 261 261 261 261 261 260
287 285 284 283 282 281 280 279 278 277 277 276 276 275 274 274 273 273 272 272 271 270 269 268 267 267 266 266 266 265 265 265 265 265 265 264 264 264 264 264 264 264 263 263 262 262 263 263 262 262 262 262 260 260 260 261 261 262 261 261 260 259 256
288 287 286 285 284 282 281 280 279 278 277 277 276 275 274 274 274 273 273 272 272 271 270 269 268 268 268 267 267 266 266 266 266 266 266 265 265 265 265 265 265 265 265 264 264 264 264 263 263 262 262 261 260 260 260 261 260 260 259 258 256 255 254
290 288 287 286 285 283 282 281 280 279 278 277 276 276 275 275 274 273 273 272 272 272 271 271 270 270 269 268 268 267 267 267 267 267 267 266 266 266 266 265 265 265 265 265 265 265 264 264 263 263 262 261 261 261 260 259 258 257 257 256 255 255 256
291 290 289 287 286 285 284 283 282 280 279 278 277 277 276 275 274 273 273 272 271 271 271 271 271 271 270 269 269 268 267 267 267 267 267 267 267 266 266 266 266 265 265 265 265 265 265 265 264 263 263 262 261 260 259 257 257 257 257 256 256 257 257
292 291 290 289 288 287 286 284 283 282 281 280 279 279 278 277 276 275 274 273 272 271 270 269 269 269 269 269 269 269 268 268 268 268 267 267 267 267 267 267 266 266 266 265 265 265 265 265 264 263 262 261 260 259 257 256 257 257 256 255 256 256 256
295 294 292 291 290 289 288 287 286 285 284 283 283 282 281 280 279 278 277 275 273 272 271 270 269 268 268 268 268 268 268 268 270 270 269 269 269 268 268 268 267 266 266 265 264 263 263 263 263 263 261 260 259 258 257 256 256 255 254 254 254 254 254
297 296 295 294 292 291 290 289 288 287 286 286 286 285 284 283 281 280 279 277 275 274 272 271 270 269 269 269 268 268 267 268 269 270 270 270 269 268 269 269 268 267 266 264 263 262 261 259 259 260 260 259 256 255 255 254 252 251 252 253 253 253 254
299 298 297 296 295 293 292 291 290 289 288 287 287 286 285 283 282 280 278 277 275 274 273 272 271 270 269 269 269 268 268 267 267 268 269 269 269 269 268 268 267 266 266 264 263 262 260 257 254 254 255 256 256 254 253 253 252 250 250 251 253 256 257
300 299 298 297 296 296 295 294 293 291 290 288 286 285 284 283 282 281 280 279 278 277 275 274 273 271 270 270 269 269 269 268 268 267 265 265 266 268 268 267 266 266 265 264 263 261 259 257 255 252 251 252 253 254 255 256 256 255 254 254 255 258 260
300 299 298 298 298 298 297 296 294 292 291 289 288 287 285 285 284 283 282 281 280 279 277 276 275 275 273 272 271 270 270 270 270 269 266 264 263 263 263 264 264 264 263 262 261 260 258 256 253 252 250 249 249 252 254 257 260 262 262 262 261 260 261
301 300 300 300 300 299 297 295 293 293 292 291 290 289 287 285 284 283 282 282 281 281 280 279 279 278 277 276 275 273 272 271 270 270 270 268 266 264 263 262 262 264 264 264 262 261 260 258 256 254 252 252 252 253 255 258 260 262 263 264 264 263 263
303 302 302 303 303 301 298 296 295 295 295 294 292 291 289 287 285 284 283 282 282 282 283 283 283 282 281 280 278 276 274 272 271 270 269 268 267 266 265 263 262 262 264 266 266 266 265 264 263 261 259 259 259 259 259 259 260 260 261 262 263 263 263
304 303 304 305 304 301 299 297 297 296 296 294 293 291 290 289 287 286 285 284 284 285 285 285 285 284 282 280 278 276 274 273 271 270 269 268 266 265 263 262 260 259 259 261 263 265 266 266 266 265 264 263 261 261 261 261 261 261 261 261 261 262 262
304 304 304 305 302 300 299 298 297 296 295 293 291 290 289 288 287 286 286 286 287 287 288 287 285 283 281 279 278 276 275 273 271 269 268 267 266 264 262 259 258 256 255 256 257 259 261 263 264 264 264 263 262 261 260 260 260 260 260 260 260 260 261
305 305 306 305 303 301 300 299 299 299 298 295 293 291 289 288 288 287 287 287 287 286 284 282 280 279 278 277 277 276 275 273 271 269 268 266 265 264 263 261 259 257 256 255 255 255 256 258 259 260 261 262 262 262 261 259 258 258 258 258 258 258 259
310 309 309 308 306 305 304 302 302 302 301 299 298 295 292 292 293 292 290 288 288 286 283 280 279 277 276 276 275 274 274 273 273 272 271 269 267 265 264 262 261 259 258 256 256 255 256 256 256 257 258 259 260 260 260 260 259 259 259 258 257 257 258
312 312 311 310 309 308 306 305 305 305 303 302 300 297 296 299 299 296 293 291 291 289 287 285 283 281 280 278 276 275 274 272 271 271 270 270 269 268 266 264 262 261 259 257 256 255 255 255 255 255 256 256 257 258 258 259 259 259 259 258 258 257 257
311 311 310 310 309 309 308 307 307 306 305 303 301 299 300 302 300 296 295 295 293 292 290 288 287 285 283 281 280 278 276 274 272 271 269 268 267 266 266 265 264 262 260 258 257 256 255 254 254 254 254 254 255 255 256 256 257 258 258 258 258 257 257
310 310 310 310 310 309 308 308 307 306 305 303 301 301 302 302 299 297 297 296 295 294 292 291 289 288 286 284 282 281 279 277 276 274 272 270 268 266 265 264 263 263 262 260 259 257 256 254 253 253 253 253 253 253 254 254 255 255 256 257 258 258 257
311 310 310 310 309 309 308 307 307 305 304 303 302 302 302 301 299 299 298 297 296 295 293 292 291 289 288 286 285 283 281 279 278 276 275 273 271 269 267 265 263 262 261 261 260 259 257 256 255 253 253 252 252 253 254 254 254 255 255 256 257 257 258
311 310 310 310 310 309 308 308 307 306 305 304 304 304 303 302 301 301 300 299 298 297 295 294 293 291 290 288 287 285 283 281 279 278 276 274 273 271 270 268 266 264 262 260 259 258 257 257 256 255 254 253 253 253 254 254 255 255 255 255 256 257 257
313 313 312 312 312 312 311 311 311 310 309 309 308 307 306 305 304 303 303 302 301 300 299 298 296 294 293 291 290 288 286 285 283 281 279 277 275 273 271 269 268 265 263 262 260 258 257 256 255 255 254 253 253 252 253 253 254 255 255 256 256 256 257
318 317 316 316 317 317 316 315 315 314 313 312 312 311 311 310 309 309 308 307 306 305 303 302 300 299 297 295 293 292 290 289 287 285 283 281 279 276 274 272 269 267 265 263 261 259 257 256 254 253 253 253 252 252 252 252 253 253 254 254 255 255 255